When you browse on this site, cookies collect data to enhance your experience and personalize the content and advertising you see.
Visit our Privacy Policy to learn more. By continuing to use the site, you agree to this use of cookies and data.
  • In Schweiz
  • Länderverzeichnis
  • Für 7 Tage
  • Wassertemperatur
  • Satellitenkarten
  • Wetterkarte
  • Widgets
  • user-avatar
    Anmelden

    Stündliche Wetter Tomashhorod

    Heute, 23 Juli, Dienstag

    Zeit Temperatur Niederschläge Wind Luftdruck Luftfeuchtigkeit
    00:00 +16°C° 0 mm 2 m/S 747 mmHg 91%
    01:00 +16°C° 0 mm 2 m/S 747 mmHg 93%
    02:00 +15°C° 0 mm 2 m/S 746 mmHg 96%
    03:00 +15°C° 0 mm 2 m/S 746 mmHg 96%
    04:00 +15°C° 0 mm 2 m/S 746 mmHg 97%
    05:00 +14°C° 0 mm 2 m/S 746 mmHg 97%
    06:00 +16°C° 0 mm 3 m/S 746 mmHg 89%
    07:00 +17°C° 0 mm 3 m/S 746 mmHg 81%
    08:00 +18°C° 0 mm 3 m/S 746 mmHg 73%
    09:00 +19°C° 0 mm 4 m/S 746 mmHg 68%
    10:00 +20°C° 0 mm 4 m/S 746 mmHg 62%
    11:00 +22°C° 0 mm 4 m/S 746 mmHg 56%
    12:00 +22°C° 0 mm 4 m/S 746 mmHg 55%
    13:00 +23°C° 0 mm 5 m/S 745 mmHg 55%
    14:00 +23°C° 0 mm 5 m/S 745 mmHg 54%
    15:00 +22°C° 0.3 mm 4 m/S 745 mmHg 60%
    16:00 +22°C° 0.3 mm 4 m/S 745 mmHg 66%
    17:00 +21°C° 0.3 mm 4 m/S 745 mmHg 72%
    18:00 +20°C° 0.4 mm 4 m/S 745 mmHg 78%
    19:00 +19°C° 0.4 mm 3 m/S 745 mmHg 84%
    20:00 +18°C° 0.4 mm 3 m/S 745 mmHg 90%
    21:00 +17°C° 0.1 mm 3 m/S 745 mmHg 91%
    22:00 +17°C° 0.1 mm 3 m/S 745 mmHg 92%
    23:00 +16°C° 0.1 mm 3 m/S 745 mmHg 93%

    Morgen, 24 Juli, Mittwoch

    Zeit Temperatur Niederschläge Wind Luftdruck Luftfeuchtigkeit
    00:00 +16°C° 0 mm 3 m/S 745 mmHg 94%
    01:00 +16°C° 0 mm 3 m/S 745 mmHg 95%
    02:00 +14°C° 0 mm 3 m/S 745 mmHg 96%
    03:00 +14°C° 0 mm 3 m/S 745 mmHg 97%
    04:00 +14°C° 0 mm 3 m/S 745 mmHg 97%
    05:00 +14°C° 0 mm 3 m/S 745 mmHg 98%
    06:00 +16°C° 0 mm 3 m/S 745 mmHg 95%
    07:00 +17°C° 0 mm 3 m/S 745 mmHg 92%
    08:00 +18°C° 0 mm 3 m/S 745 mmHg 89%
    09:00 +20°C° 0.1 mm 3 m/S 745 mmHg 80%
    10:00 +22°C° 0.1 mm 4 m/S 745 mmHg 71%
    11:00 +25°C° 0.1 mm 4 m/S 745 mmHg 62%
    12:00 +25°C° 0.1 mm 4 m/S 745 mmHg 58%
    13:00 +26°C° 0.1 mm 4 m/S 745 mmHg 54%
    14:00 +27°C° 0.1 mm 4 m/S 745 mmHg 50%
    15:00 +26°C° 0.1 mm 4 m/S 745 mmHg 54%
    16:00 +26°C° 0.1 mm 4 m/S 745 mmHg 58%
    17:00 +25°C° 0.1 mm 4 m/S 745 mmHg 62%
    18:00 +24°C° 0.1 mm 3 m/S 745 mmHg 69%
    19:00 +21°C° 0.1 mm 3 m/S 745 mmHg 76%
    20:00 +19°C° 0.1 mm 2 m/S 745 mmHg 83%
    21:00 +19°C° 0 mm 2 m/S 745 mmHg 85%
    22:00 +18°C° 0 mm 2 m/S 746 mmHg 87%
    23:00 +17°C° 0 mm 2 m/S 746 mmHg 89%

    übermorgen, 25 Juli, Donnerstag

    Zeit Temperatur Niederschläge Wind Luftdruck Luftfeuchtigkeit
    00:00 +17°C° 0 mm 2 m/S 746 mmHg 90%
    01:00 +16°C° 0 mm 2 m/S 746 mmHg 92%
    02:00 +16°C° 0 mm 2 m/S 746 mmHg 93%
    03:00 +15°C° 0 mm 2 m/S 746 mmHg 94%
    04:00 +15°C° 0 mm 2 m/S 746 mmHg 94%
    05:00 +15°C° 0 mm 1 m/S 746 mmHg 95%
    06:00 +17°C° 0 mm 2 m/S 746 mmHg 87%
    07:00 +18°C° 0 mm 2 m/S 747 mmHg 80%
    08:00 +20°C° 0 mm 2 m/S 747 mmHg 72%
    09:00 +23°C° 0 mm 2 m/S 747 mmHg 64%
    10:00 +24°C° 0 mm 2 m/S 747 mmHg 56%
    11:00 +26°C° 0 mm 2 m/S 747 mmHg 48%
    12:00 +26°C° 0 mm 2 m/S 746 mmHg 47%
    13:00 +27°C° 0 mm 3 m/S 746 mmHg 45%
    14:00 +27°C° 0 mm 3 m/S 746 mmHg 44%
    15:00 +27°C° 0.1 mm 3 m/S 746 mmHg 49%
    16:00 +26°C° 0.1 mm 3 m/S 745 mmHg 55%
    17:00 +25°C° 0.1 mm 3 m/S 745 mmHg 61%
    18:00 +22°C° 0.2 mm 3 m/S 745 mmHg 69%
    19:00 +21°C° 0.2 mm 2 m/S 744 mmHg 78%
    20:00 +20°C° 0.2 mm 1 m/S 744 mmHg 86%
    21:00 +19°C° 0 mm 1 m/S 744 mmHg 89%
    22:00 +19°C° 0 mm 1 m/S 744 mmHg 91%
    23:00 +18°C° 0 mm 1 m/S 744 mmHg 93%

    26 Juli, Freitag

    Zeit Temperatur Niederschläge Wind Luftdruck Luftfeuchtigkeit
    00:00 +18°C° 0 mm 1 m/S 744 mmHg 94%
    01:00 +16°C° 0 mm 2 m/S 744 mmHg 95%
    02:00 +16°C° 0 mm 2 m/S 743 mmHg 96%
    03:00 +16°C° 0 mm 2 m/S 743 mmHg 96%
    04:00 +15°C° 0 mm 2 m/S 743 mmHg 97%
    05:00 +15°C° 0 mm 2 m/S 743 mmHg 98%
    06:00 +16°C° 0 mm 2 m/S 743 mmHg 94%
    07:00 +17°C° 0 mm 2 m/S 743 mmHg 90%
    08:00 +18°C° 0 mm 2 m/S 743 mmHg 86%
    09:00 +19°C° 0.1 mm 2 m/S 743 mmHg 79%
    10:00 +21°C° 0.1 mm 3 m/S 743 mmHg 71%
    11:00 +22°C° 0.1 mm 3 m/S 743 mmHg 64%
    12:00 +22°C° 1.1 mm 3 m/S 743 mmHg 67%
    13:00 +22°C° 1.1 mm 3 m/S 743 mmHg 70%
    14:00 +24°C° 1.1 mm 3 m/S 742 mmHg 73%
    15:00 +22°C° 0.9 mm 3 m/S 742 mmHg 74%
    16:00 +22°C° 0.9 mm 3 m/S 742 mmHg 75%
    17:00 +22°C° 0.9 mm 3 m/S 742 mmHg 76%
    18:00 +21°C° 0.2 mm 3 m/S 742 mmHg 82%
    19:00 +19°C° 0.2 mm 3 m/S 742 mmHg 87%
    20:00 +18°C° 0.2 mm 2 m/S 742 mmHg 93%
    21:00 +18°C° 0.1 mm 2 m/S 742 mmHg 94%
    22:00 +17°C° 0.1 mm 2 m/S 742 mmHg 95%
    23:00 +17°C° 0.1 mm 2 m/S 742 mmHg 96%

    27 Juli, Samstag

    Zeit Temperatur Niederschläge Wind Luftdruck Luftfeuchtigkeit
    00:00 +16°C° 0 mm 2 m/S 742 mmHg 97%
    01:00 +16°C° 0 mm 2 m/S 741 mmHg 98%
    02:00 +16°C° 0 mm 2 m/S 741 mmHg 99%
    03:00 +16°C° 0.4 mm 2 m/S 741 mmHg 98%
    04:00 +17°C° 0.4 mm 3 m/S 741 mmHg 98%
    05:00 +17°C° 0.4 mm 3 m/S 741 mmHg 97%
    06:00 +17°C° 0.7 mm 3 m/S 741 mmHg 97%
    07:00 +17°C° 0.7 mm 2 m/S 741 mmHg 97%
    08:00 +17°C° 0.7 mm 2 m/S 741 mmHg 96%
    09:00 +17°C° 1.6 mm 2 m/S 741 mmHg 97%
    10:00 +17°C° 1.6 mm 2 m/S 741 mmHg 97%
    11:00 +17°C° 1.6 mm 2 m/S 741 mmHg 97%
    12:00 +17°C° 1.7 mm 2 m/S 741 mmHg 97%
    13:00 +18°C° 1.7 mm 2 m/S 740 mmHg 97%
    14:00 +18°C° 1.7 mm 2 m/S 740 mmHg 97%
    15:00 +18°C° 0.2 mm 2 m/S 740 mmHg 95%
    16:00 +19°C° 0.2 mm 2 m/S 740 mmHg 94%
    17:00 +19°C° 0.2 mm 2 m/S 740 mmHg 92%
    18:00 +19°C° 0.2 mm 2 m/S 740 mmHg 94%
    19:00 +18°C° 0.2 mm 2 m/S 740 mmHg 95%
    20:00 +18°C° 0.2 mm 2 m/S 739 mmHg 96%
    21:00 +17°C° 0 mm 2 m/S 740 mmHg 97%
    22:00 +17°C° 0 mm 2 m/S 740 mmHg 97%
    23:00 +16°C° 0 mm 1 m/S 740 mmHg 98%

    28 Juli, Sonntag

    Zeit Temperatur Niederschläge Wind Luftdruck Luftfeuchtigkeit
    00:00 +16°C° 0 mm 1 m/S 740 mmHg 98%
    01:00 +16°C° 0 mm 1 m/S 740 mmHg 98%
    02:00 +16°C° 0 mm 1 m/S 740 mmHg 98%
    03:00 +16°C° 0 mm 1 m/S 740 mmHg 98%
    04:00 +16°C° 0 mm 2 m/S 740 mmHg 98%
    05:00 +16°C° 0 mm 2 m/S 740 mmHg 98%
    06:00 +17°C° 0 mm 2 m/S 740 mmHg 95%
    07:00 +19°C° 0 mm 2 m/S 740 mmHg 91%
    08:00 +20°C° 0 mm 2 m/S 741 mmHg 88%
    09:00 +23°C° 0 mm 2 m/S 741 mmHg 79%
    10:00 +25°C° 0 mm 3 m/S 741 mmHg 70%
    11:00 +26°C° 0 mm 3 m/S 741 mmHg 61%
    12:00 +27°C° 0.1 mm 3 m/S 740 mmHg 59%
    13:00 +28°C° 0.1 mm 3 m/S 740 mmHg 58%
    14:00 +28°C° 0.1 mm 3 m/S 740 mmHg 57%
    15:00 +28°C° 0.2 mm 3 m/S 740 mmHg 59%
    16:00 +28°C° 0.2 mm 3 m/S 740 mmHg 61%
    17:00 +28°C° 0.2 mm 3 m/S 740 mmHg 63%
    18:00 +26°C° 0.2 mm 3 m/S 740 mmHg 72%
    19:00 +24°C° 0.2 mm 3 m/S 740 mmHg 80%
    20:00 +21°C° 0.2 mm 2 m/S 740 mmHg 88%
    21:00 +20°C° 0.1 mm 3 m/S 740 mmHg 91%
    22:00 +20°C° 0.1 mm 3 m/S 740 mmHg 93%
    23:00 +19°C° 0.1 mm 3 m/S 740 mmHg 95%
    Mehr zeigen